Location: Palomar Mountain Lodge
(33.3110°N, 116.8495°W)
Time: 03:30:34
(UTC-07:00)

PSLV R/B - Pass Details

Date: 19 May 2017
Orbit: 373 x 411 km, 41.0° (Epoch: 23 June)

Event Time Altitude Azimuth Distance (km) Brightness Sun altitude
Rises 21:06:50 0° 262° (W) 2,213 7.6 -15.7°
Reaches altitude 10° 21:08:57 10° 270° (W) 1,368 6.6 -16.0°
Maximum altitude 21:11:52 37° 341° (NNW) 596 4.5 -16.5°
Enters shadow 21:14:46 10° 51° (NE) 1,371 5.7 -17.0°
